Regional Weather Roundup
Issued by NWS

Home | Current Version | Previous Version | Text Only | Print | Product List | Glossary On
Versions: 1 2 3 4 5 6 7 8 9 10 11 12 13 14 15 16 17 18 19 20 21 22 23 24 25 26 27 28 29 30 31 32 33 34 35 36 37 38 39 40 41 42 43 44 45 46 47 48 49 50
000
ASUS45 KREV 051310
RWRNV
NEVADA REGIONAL WEATHER ROUNDUP
NATIONAL WEATHER SERVICE RENO NV
600 AM PDT TUE MAY 05 2015

NOTE: "FAIR" INDICATES FEW OR NO CLOUDS BELOW 12,000 FEET WITH NO
SIGNIFICANT WEATHER AND/OR OBSTRUCTIONS TO VISIBILITY.

NVZ001-003-004-051400-
WESTERN NEVADA

CITY           SKY/WX    TMP DP  RH WIND       PRES   REMARKS
RENO           PTCLDY    46  33  60 CALM      29.96S
CARSON CITY    FAIR      41  34  75 CALM      29.97S
MINDEN         FAIR      32  28  86 CALM      29.98S
FALLON         CLEAR     47  32  56 SE3       29.89S
LOVELOCK       CLEAR     45  28  51 CALM      29.88R
$$

NVZ002-CAZ072-073-051400-
NORTHERN AND CENTRAL SIERRA

CITY           SKY/WX    TMP DP  RH WIND       PRES   REMARKS
S. LAKE TAHOE  CLEAR     31  26  82 CALM      30.02S
TRUCKEE        FOG       23  23 100 CALM      30.03S VSB<1/4
SQUAW VLY 8000 NOT AVBL
BLUE CANYON    CLEAR     49  27  42 E3        30.00S
MAMMOTH LAKES  FAIR      32  25  74 CALM      30.03S
BRIDGEPORT     FAIR      28  22  78 CALM      30.00F
$$

NVZ030-031-036-051400-
NORTHERN NEVADA

CITY           SKY/WX    TMP DP  RH WIND       PRES   REMARKS
ELKO           PTCLDY    43  35  73 E5        29.90S
WINNEMUCCA     NOT AVBL
WENDOVER       CLOUDY    54  39  58 NE5       29.84S
$$

NVZ035-037-051400-
CENTRAL NEVADA

CITY           SKY/WX    TMP DP  RH WIND       PRES   REMARKS
ELY            MOCLDY    37  32  82 S7        29.94S
EUREKA           N/A     40  31  70 S5        29.93S
$$

NVZ013-014-051400-
SOUTH CENTRAL NEVADA

CITY           SKY/WX    TMP DP  RH WIND       PRES   REMARKS
TONOPAH        NOT AVBL
$$

NVZ017-020-022-051400-
SOUTHERN NEVADA

CITY           SKY/WX    TMP DP  RH WIND       PRES   REMARKS
LAS VEGAS      MOCLDY    65  38  36 S10       29.79R
N. LAS VEGAS   MOCLDY    64  45  49 E13       29.82S
NELLIS AFB     CLOUDY    65  49  56 E7        29.82R
HENDERSON      PTCLDY    61  44  53 S9        29.85S
MERCURY        CLEAR     57  35  43 E5        29.85R
$$



USA.gov is the U.S. government's official web portal to all federal, state and local government web resources and services.